[[{"header":{"parameterUnit":"m.s-1","parameterCategory":1,"la1":30.2991,"la2":30.254,"lo1":-89.0895,"lo2":-89.0444,"dy":0.0017,"dx":0.0017,"nx":28,"ny":28,"refTime":"2025-06-16T21:00:00:Z","depth":0,"parameterNumber":2,"parameterNumberName":"U-component_of_WINDS"},"data":[0,0,0,0,0,0,0,0,0,0,0,0,0,0,0,0,0,0,0,0,0,0,0,0,0,0,0,0,0,0,0,0,0,0,0,0,0,0,0,0,0,0,0,0,0,0,0,0,0,0,0,0,0,0,0,0,0,0,2.1352,2.1351,0,2.1308,2.1307,2.1307,2.1237,2.1235,2.1234,2.1233,2.1188,2.1188,2.1188,0,0,0,0,0,0,0,0,0,0,0,0,0,2.1372,2.1372,2.1352,2.1351,2.135,2.1308,2.1307,2.1307,2.1237,2.1235,2.1234,2.1232,2.1188,2.1188,2.1188,0,0,0,0,0,0,0,0,0,0,0,0,0,2.1349,2.1372,2.1352,2.131,2.1306,2.1308,2.1307,2.1307,2.1237,2.1235,2.1233,2.1232,2.1188,2.1188,2.1188,2.1227,0,0,2.1188,2.1188,0,0,0,0,0,0,0,0,2.1351,2.1349,2.1317,2.1313,2.1309,2.1276,2.1298,2.128,2.1238,2.1263,2.1233,2.1231,2.1219,2.1216,2.1212,2.1225,2.1223,2.1188,2.1188,2.1188,2.1188,0,0,0,0,0,0,0,2.1352,2.135,2.1334,2.1317,2.1312,2.1293,2.1288,2.1294,2.1253,2.1261,2.1256,2.1252,2.1216,2.1213,2.1211,2.1222,2.1188,2.1188,2.1188,2.1188,2.126,2.1262,0,0,0,0,0,0,2.136,2.1352,2.1336,2.1333,2.1325,2.1295,2.1289,2.1288,2.1252,2.1245,2.1253,2.1249,2.1213,2.1211,2.1209,2.1248,2.1188,2.1188,2.1188,2.1258,2.126,2.1262,0,0,0,0,0,0,2.1361,2.1359,2.1337,2.1341,2.1337,2.1296,2.1296,2.1288,2.1284,2.1246,2.1238,2.1257,2.1212,2.1209,2.1222,2.1246,2.1188,2.1188,2.1256,2.1259,2.1261,2.133,0,0,0,0,0,0,2.1362,2.136,2.1375,2.1342,2.1337,2.1352,2.1298,2.1289,2.1285,2.1278,2.1248,2.1241,2.121,2.1222,2.1222,2.1245,2.1188,2.1253,2.1257,2.126,2.1326,2.1335,2.1343,0,0,0,0,0,2.1363,2.1397,2.1376,2.1375,2.1355,2.1354,2.1351,2.1314,2.1287,2.1301,2.1276,2.1242,2.1244,2.1224,2.1223,2.1247,2.1252,2.1256,2.126,2.1322,2.1333,2.1343,0,0,0,0,0,0,2.1435,2.1392,2.1368,2.1393,2.1377,2.1342,2.1358,2.1328,2.132,2.1314,2.1269,2.1263,2.1281,2.1265,2.1244,2.128,2.1242,2.1247,2.1289,2.13,2.1309,2.1311,2.1188,0,0,0,0,0,2.1454,2.1457,2.1419,2.1444,2.1438,2.14,2.1398,2.1371,2.1353,2.1346,2.1322,2.1305,2.1302,2.13,2.1295,2.1323,2.1314,2.1339,2.1348,2.1355,2.1359,2.1369,2.1378,2.1276,2.1276,2.1276,0,0,2.1493,2.1469,2.1474,2.1458,2.1443,2.1446,2.1395,2.1401,2.1402,2.1347,2.1356,2.1339,2.1317,2.1337,2.1344,2.1324,2.1385,2.1361,2.1367,2.1366,2.1374,2.1384,2.1392,2.1279,2.1278,2.1278,0,0,2.1564,2.1548,2.1566,2.1551,2.1528,2.1502,2.1506,2.1474,2.146,2.1469,2.1427,2.1427,2.1423,2.1408,2.14,2.1464,2.1431,2.1463,2.1509,2.1519,2.1527,2.1534,2.1553,2.1561,2.1467,2.1468,2.1468,0,2.1615,2.1618,2.1579,2.1586,2.1579,2.1529,2.1545,2.1533,2.151,2.1505,2.1483,2.1474,2.1457,2.1471,2.1486,2.1482,2.1483,2.1466,2.1529,2.1536,2.1541,2.1559,2.1567,2.1471,2.1471,2.1471,2.147,0,2.168,2.1683,2.17,2.1677,2.1672,2.1684,2.1645,2.1645,2.1618,2.1594,2.1602,2.1579,2.1567,2.1568,2.1543,2.1578,2.1566,2.1537,2.1498,2.1555,2.1571,2.1578,2.1477,2.1476,2.1474,2.1474,0,0,2.1796,2.175,2.1756,2.1744,2.1714,2.1714,2.1724,2.1711,2.171,2.1695,2.17,2.1696,2.1669,2.166,2.1632,2.1641,2.1689,2.1611,2.161,2.1624,2.1722,2.1741,2.175,2.1668,2.1669,2.167,2.1722,0,2.1859,2.1871,2.1835,2.1856,2.1856,2.1807,2.1814,2.1796,2.1774,2.177,2.1745,2.1741,2.1707,2.1701,2.1708,2.1681,2.1707,2.1678,2.1669,2.167,2.1674,2.1759,2.178,2.1831,2.1729,2.173,2.1731,0,2.1934,2.1921,2.1942,2.1908,2.1907,2.1914,2.1897,2.1895,2.1873,2.1855,2.1844,2.1811,2.1816,2.178,2.1784,2.1764,2.1759,2.1745,2.1746,2.1742,2.1702,2.1754,2.1847,2.1853,2.1741,2.174,2.1739,0,2.2012,2.2001,2.2011,2.2002,2.1964,2.1969,2.1953,2.1929,2.1922,2.1908,2.1903,2.189,2.1883,2.1873,2.1836,2.1814,2.1844,2.1805,2.1828,2.1828,2.1835,2.1834,2.1925,2.1836,2.1836,2.1836,2.1835,0,2.2085,2.2098,2.2045,2.2051,2.2064,2.2022,2.2036,2.2015,2.1993,2.1993,2.1951,2.1952,2.1905,2.19,2.1872,2.1878,2.1876,2.186,2.1852,2.1863,2.1864,2.1857,2.1851,2.1838,2.1837,2.1837,2.1836,0,2.2173,2.2139,2.2145,2.2108,2.2098,2.2109,2.2076,2.2079,2.2054,2.2054,2.2052,2.2011,2.2003,2.1966,2.195,2.193,2.1945,2.1931,2.1952,2.1946,2.1969,2.1967,2.2056,2.2064,2.1973,2.1974,2.1975,0,2.2221,2.223,2.2192,2.2189,2.2175,2.217,2.2163,2.2122,2.2115,2.2089,2.2095,2.2083,2.2071,2.206,2.2028,2.2014,2.1998,2.203,2.1996,2.2005,2.1995,2.1993,2.1993,2.2037,2.2038,2.2039,2.204,0,2.2307,2.2289,2.228,2.2264,2.2257,2.2243,2.2226,2.2226,2.2179,2.2175,2.2165,2.2156,2.2138,2.2125,2.2106,2.2089,2.2056,2.2051,2.2055,2.2065,2.2075,2.2067,2.1969,2.2049,2.2048,2.2048,2.2047,2.2047,2.2374,2.2379,2.2352,2.2343,2.2326,2.2311,2.2311,2.2284,2.2276,2.2257,2.2234,2.2226,2.2201,2.2171,2.2156,2.2149,2.2131,2.2138,2.2139,2.214,2.2144,2.2079,2.2146,2.2146,2.2145,2.2145,2.2145,0,2.2455,2.2436,2.2428,2.2405,2.2397,2.2368,2.2347,2.2342,2.2336,2.2315,2.2304,2.2292,2.2279,2.2246,2.223,2.223,2.2215,2.2227,2.2225,2.2221,2.2163,2.2159,2.224,2.224,2.224,2.224,2.224,2.224,2.2497,2.2502,2.248,2.2475,2.2455,2.2447,2.2438,2.2423,2.2405,2.2393,2.2382,2.2361,2.2334,2.2316,2.2302,2.2292,2.2287,2.2304,2.229,2.2235,2.2226,2.2217,2.2214,2.2304,2.2304,2.2348,2.2349,2.2349]},{"header":{"parameterUnit":"m.s-1","parameterCategory":1,"la1":30.2991,"la2":30.254,"lo1":-89.0895,"lo2":-89.0444,"dy":0.0017,"dx":0.0017,"nx":28,"ny":28,"refTime":"2025-06-16T21:00:00:Z","depth":0,"parameterNumber":3,"parameterNumberName":"V-component_of_WINDS"},"data":[0,0,0,0,0,0,0,0,0,0,0,0,0,0,0,0,0,0,0,0,0,0,0,0,0,0,0,0,0,0,0,0,0,0,0,0,0,0,0,0,0,0,0,0,0,0,0,0,0,0,0,0,0,0,0,0,0,0,5.6619,5.6621,0,5.6797,5.6799,5.6801,5.6773,5.677,5.6767,5.6764,5.6943,5.695,5.6957,0,0,0,0,0,0,0,0,0,0,0,0,0,5.6251,5.6258,5.6619,5.6621,5.6623,5.6796,5.6799,5.6801,5.6774,5.677,5.6766,5.6763,5.694,5.6949,5.6958,0,0,0,0,0,0,0,0,0,0,0,0,0,5.6418,5.626,5.6619,5.6631,5.6633,5.6796,5.6799,5.6802,5.6774,5.677,5.6765,5.6761,5.6937,5.6948,5.6959,5.712,0,0,5.6994,5.6999,0,0,0,0,0,0,0,0,5.6408,5.6431,5.6627,5.663,5.6634,5.6758,5.6734,5.6908,5.6775,5.6721,5.6764,5.6759,5.6885,5.69,5.6943,5.7128,5.7136,5.6995,5.7002,5.7007,5.701,0,0,0,0,0,0,0,5.6397,5.6424,5.6689,5.6629,5.6634,5.6625,5.6644,5.6767,5.6826,5.6725,5.6724,5.6745,5.6886,5.6932,5.6947,5.7139,5.6995,5.7005,5.7012,5.7016,5.7462,5.7466,0,0,0,0,0,0,5.6383,5.6414,5.6683,5.6694,5.6508,5.6636,5.6657,5.6723,5.6824,5.6836,5.6749,5.6743,5.6915,5.6934,5.6953,5.7146,5.7007,5.7017,5.7024,5.7457,5.7463,5.7468,0,0,0,0,0,0,5.6375,5.6407,5.6676,5.6554,5.6588,5.6647,5.6721,5.6729,5.6775,5.6842,5.6852,5.6786,5.6912,5.6937,5.7078,5.7152,5.7022,5.7033,5.7451,5.7458,5.7465,5.7535,0,0,0,0,0,0,5.6364,5.6404,5.6467,5.6556,5.6594,5.68,5.6726,5.6735,5.6795,5.679,5.688,5.689,5.6911,5.7062,5.709,5.7166,5.7042,5.7444,5.7454,5.7463,5.7526,5.7544,5.7559,0,0,0,0,0,5.6351,5.648,5.6471,5.6503,5.6675,5.6805,5.6827,5.6848,5.6801,5.6864,5.6907,5.6888,5.714,5.7076,5.7108,5.7188,5.744,5.7451,5.7462,5.7519,5.7541,5.7559,0,0,0,0,0,0,5.6398,5.6492,5.6483,5.6644,5.6717,5.68,5.688,5.6871,5.6957,5.6948,5.697,5.6991,5.7133,5.7175,5.7102,5.7347,5.7283,5.7301,5.7315,5.7336,5.7352,5.7339,5.7051,0,0,0,0,0,5.6427,5.6526,5.6602,5.6737,5.6774,5.6821,5.6878,5.6888,5.6964,5.6994,5.7047,5.7121,5.7216,5.7278,5.737,5.7532,5.755,5.7603,5.7619,5.7632,5.7647,5.7734,5.7757,5.7505,5.7505,5.7505,0,0,5.6488,5.6551,5.6613,5.6748,5.6805,5.6905,5.6847,5.6956,5.703,5.7011,5.7147,5.7188,5.7271,5.7423,5.7492,5.7462,5.7721,5.7646,5.7656,5.7665,5.7748,5.7772,5.7793,5.7513,5.7512,5.751,0,0,5.665,5.6709,5.6827,5.6885,5.6973,5.7003,5.7031,5.7116,5.7143,5.728,5.7267,5.7355,5.7519,5.7578,5.763,5.7812,5.7797,5.7841,5.7927,5.8011,5.803,5.8048,5.8112,5.8134,5.7856,5.7856,5.7857,0,5.6714,5.6867,5.6888,5.6999,5.7057,5.7045,5.7163,5.7218,5.7331,5.7371,5.7336,5.7541,5.7596,5.776,5.7804,5.7847,5.7878,5.7831,5.8026,5.8044,5.8061,5.8122,5.8146,5.7861,5.7861,5.786,5.786,0,5.694,5.7046,5.713,5.724,5.7308,5.7422,5.7458,5.7525,5.7528,5.7561,5.77,5.7765,5.7869,5.7909,5.7914,5.8074,5.8052,5.8021,5.7957,5.8089,5.8146,5.817,5.7868,5.7866,5.7865,5.7864,0,0,5.7138,5.7257,5.7287,5.7336,5.7431,5.7513,5.7624,5.7727,5.7782,5.786,5.7953,5.8092,5.8063,5.8122,5.8133,5.8207,5.8345,5.8167,5.8169,5.8196,5.8523,5.8544,5.8571,5.8335,5.834,5.8343,5.8515,0,5.7308,5.7507,5.7528,5.7706,5.7802,5.779,5.7887,5.7955,5.7989,5.8074,5.811,5.8208,5.8164,5.8199,5.8272,5.8312,5.841,5.83,5.842,5.8424,5.8399,5.8601,5.8625,5.8784,5.8538,5.8542,5.8544,0,5.7533,5.7618,5.7805,5.7885,5.7926,5.8013,5.8107,5.819,5.8265,5.8284,5.8349,5.835,5.8463,5.8394,5.8549,5.8474,5.8524,5.8552,5.8558,5.857,5.8492,5.8617,5.8836,5.8859,5.858,5.8577,5.8575,0,5.7657,5.7817,5.7949,5.7991,5.8089,5.815,5.8193,5.8264,5.8323,5.8405,5.8444,5.8537,5.8588,5.866,5.8685,5.8633,5.8839,5.8773,5.8856,5.8856,5.89,5.8897,5.9129,5.8934,5.8933,5.8933,5.8932,0,5.7844,5.7958,5.8006,5.8087,5.8214,5.8236,5.8361,5.84,5.8464,5.8551,5.8546,5.8628,5.8657,5.8743,5.8763,5.8888,5.8911,5.8928,5.8932,5.8928,5.8926,5.8961,5.895,5.8939,5.8938,5.8937,5.8935,0,5.8003,5.804,5.8183,5.8262,5.8285,5.8375,5.8442,5.852,5.8551,5.8661,5.8689,5.8738,5.8839,5.8871,5.8993,5.9006,5.9151,5.9146,5.9126,5.9126,5.9207,5.9199,5.9469,5.9505,5.9288,5.929,5.9291,0,5.812,5.8208,5.8297,5.8355,5.8401,5.8495,5.8555,5.858,5.8643,5.8735,5.88,5.89,5.8982,5.9143,5.9188,5.9281,5.9277,5.9365,5.9291,5.9284,5.9277,5.9271,5.9279,5.9379,5.9381,5.9383,5.9385,0,5.8323,5.8336,5.8424,5.8518,5.859,5.8665,5.8737,5.8785,5.882,5.889,5.8994,5.9057,5.9181,5.9279,5.9373,5.9415,5.9406,5.9408,5.9432,5.9429,5.9413,5.9421,5.9163,5.9401,5.94,5.9399,5.9398,5.9397,5.8463,5.854,5.8614,5.8712,5.8768,5.8836,5.8912,5.8953,5.904,5.9143,5.9152,5.9263,5.9334,5.9459,5.9506,5.9592,5.9567,5.9602,5.9611,5.9619,5.9625,5.94,5.9609,5.9609,5.9609,5.9608,5.9608,0,5.8665,5.8711,5.8801,5.8902,5.8978,5.8963,5.9042,5.9106,5.9204,5.9272,5.9352,5.9469,5.9564,5.9617,5.9712,5.977,5.9768,5.9794,5.979,5.9799,5.9643,5.9612,5.9795,5.9795,5.9794,5.9794,5.9794,5.9794,5.8778,5.8907,5.8928,5.9084,5.913,5.9239,5.9285,5.9346,5.94,5.9532,5.9611,5.9645,5.9707,5.9805,5.9891,5.9904,5.9939,5.9968,5.9978,5.983,5.9811,5.9792,5.9764,5.9975,5.9975,6.0127,6.0129,6.013]}]]